FW6418 Weather Reports


time (UTC)temp
C
wind
direction
speed
KPH
gust
KPH
rain 1hr
cm
rain 24hr
cm
rain mn
cm
humidity
%
barometer
mb
20260906110517 17 0.0 0.0 0.00 0.00 0.00 99 1016.2
20260906105533 17 0.0 1.6 0.00 0.00 0.00 99 1016.2
20260906103531 17 0.0 1.6 0.00 0.00 0.00 99 1015.9
20260906102528 17 0.0 0.0 0.00 0.00 0.00 99 1015.7
20260906101526 17 0.0 0.0 0.00 0.00 0.00 99 1015.6
20260906100523 17 0.0 0.0 0.00 0.00 0.00 99 1015.5
20260906095535 17 0.0 1.6 0.00 0.00 0.00 99 1015.5
20260906094517 17 0.0 0.0 0.00 0.00 0.00 98 1015.5
20260906093618 17 0.0 0.0 0.00 0.00 0.00 98 1015.5
20260906092536 17 0.0 0.0 0.00 0.00 0.00 98 1015.6
20260906091528 17 0.0 0.0 0.00 0.00 0.00 98 1015.6
20260906090544 17 7 0.0 1.6 0.00 0.00 0.00 99 1015.6
20260906085522 17 0.0 1.6 0.00 0.00 0.00 98 1015.4
20260906084550 17 27 0.0 1.6 0.00 0.00 0.00 98 1015.3
20260906083519 17 196 0.0 1.6 0.00 0.00 0.00 98 1015.2
20260906082531 17 81 0.0 1.6 0.00 0.00 0.00 96 1015.1
20260906081528 17 0.0 0.0 0.00 0.00 0.00 96 1015.0
20260906080523 18 0.0 1.6 0.00 0.00 0.00 96 1015.0
20260906075548 18 93 0.0 1.6 0.00 0.00 0.00 96 1014.9
20260906074522 18 59 0.0 1.6 0.00 0.00 0.00 95 1015.0
20260906073520 18 0.0 1.6 0.00 0.00 0.00 95 1015.2
20260906072517 18 0.0 1.6 0.00 0.00 0.00 94 1015.2
20260906071603 18 110 0.0 3.2 0.00 0.00 0.00 94 1015.2
20260906070530 18 0.0 0.0 0.00 0.00 0.00 93 1015.5
20260906065527 18 266 0.0 1.6 0.00 0.00 0.00 94 1015.3
20260906064525 18 133 0.0 3.2 0.00 0.00 0.00 94 1015.6
20260906063523 18 0.0 1.6 0.00 0.00 0.00 93 1015.7
20260906062534 18 105 1.6 3.2 0.00 0.00 0.00 92 1015.8
20260906061517 18 29 0.0 3.2 0.00 0.00 0.00 92 1015.9
20260906060534 18 153 0.0 3.2 0.00 0.00 0.00 90 1015.8
20260906055530 18 341 1.6 3.2 0.00 0.00 0.00 90 1015.7
20260906054528 18 169 1.6 4.8 0.00 0.00 0.00 90 1015.7
20260906053557 18 312 0.0 3.2 0.00 0.00 0.00 91 1015.7
20260906052524 18 0.0 1.6 0.00 0.00 0.00 91 1015.8
20260906051523 18 0.0 1.6 0.00 0.00 0.00 91 1015.9
20260906050522 18 236 0.0 1.6 0.00 0.00 0.00 90 1015.9
20260906045520 18 0.0 1.6 0.00 0.00 0.00 90 1016.0
20260906044519 19 0.0 0.0 0.00 0.00 0.00 89 1016.0
20260906042523 19 142 0.0 3.2 0.00 0.00 0.00 88 1016.0
20260906041518 19 0.0 1.6 0.00 0.00 0.00 88 1016.1
20260906040522 19 0.0 0.0 0.00 0.00 0.00 87 1015.8
20260906035519 20 0.0 0.0 0.00 0.00 0.00 86 1015.9
20260906034517 20 0.0 0.0 0.00 0.00 0.00 85 1016.1
20260906033534 20 0.0 0.0 0.00 0.00 0.00 84 1016.0
20260906032531 20 0.0 0.0 0.00 0.00 0.00 82 1016.2
20260906031528 20 53 0.0 3.2 0.00 0.00 0.00 80 1016.1
20260906030525 20 0.0 3.2 0.00 0.00 0.00 80 1016.3
20260906025523 20 155 1.6 3.2 0.00 0.00 0.00 80 1016.3
20260906024520 20 96 0.0 1.6 0.00 0.00 0.00 79 1016.3
20260906023519 21 0.0 0.0 0.00 0.00 0.00 78 1016.2
20260906022547 21 72 0.0 3.2 0.00 0.00 0.00 76 1016.2
20260906021534 21 0.0 1.6 0.00 0.00 0.00 77 1016.1
20260906020532 21 313 0.0 3.2 0.00 0.00 0.00 77 1016.2
20260906015529 21 199 0.0 1.6 0.00 0.00 0.00 77 1016.1
20260906014526 21 203 0.0 1.6 0.00 0.00 0.00 76 1016.1
20260906013525 21 0.0 1.6 0.00 0.00 0.00 74 1015.9
20260906012524 22 0.0 1.6 0.00 0.00 0.00 73 1015.9
20260906011557 22 357 0.0 1.6 0.00 0.00 0.00 72 1015.7
20260906010521 22 102 0.0 3.2 0.00 0.00 0.00 71 1015.6
20260906005519 22 95 0.0 3.2 0.00 0.00 0.00 70 1015.5
20260906004518 22 0.0 0.0 0.00 0.00 0.00 69 1015.5
20260906003531 22 265 0.0 1.6 0.00 0.00 0.00 69 1015.5
20260906001521 23 0.0 1.6 0.00 0.00 0.00 69 1015.2
20260906000516 23 0.0 0.0 0.00 0.00 0.00 67 1015.3
20260905235520 24 0.0 1.6 0.00 0.00 0.00 66 1015.1
20260905234547 24 0.0 0.0 0.00 0.00 0.00 65 1014.9
20260905233532 25 83 0.0 3.2 0.00 0.00 0.00 64 1014.8
20260905232530 25 106 0.0 6.4 0.00 0.00 0.00 63 1014.8
20260905231559 26 245 0.0 1.6 0.00 0.00 0.00 62 1014.9
20260905230527 26 0.0 1.6 0.00 0.00 0.00 60 1015.0
20260905225527 27 250 0.0 3.2 0.00 0.00 0.00 58 1015.0
20260905224524 27 0.0 1.6 0.00 0.00 0.00 58 1014.8
20260905223523 28 134 0.0 3.2 0.00 0.00 0.00 56 1015.0
20260905222521 28 167 1.6 4.8 0.00 0.00 0.00 54 1015.1
20260905221520 29 34 1.6 4.8 0.00 0.00 0.00 55 1014.8
20260905220518 30 247 0.0 1.6 0.00 0.00 0.00 54 1014.8
20260905215604 30 111 1.6 6.4 0.00 0.00 0.00 53 1014.8
20260905214532 30 174 1.6 6.4 0.00 0.00 0.00 54 1014.9
20260905213530 30 153 0.0 3.2 0.00 0.00 0.00 54 1014.9
20260905212529 30 164 3.2 6.4 0.00 0.00 0.00 53 1014.8
20260905211528 30 262 1.6 3.2 0.00 0.00 0.00 54 1014.7
20260905205554 32 129 1.6 4.8 0.00 0.00 0.00 50 1014.7
20260905204551 33 163 1.6 4.8 0.00 0.00 0.00 49 1014.7
20260905203549 35 222 1.6 4.8 0.00 0.00 0.00 47 1014.6
20260905202517 36 156 1.6 8.0 0.00 0.00 0.00 50 1014.5
20260905201602 36 301 1.6 4.8 0.00 0.00 0.00 52 1014.3
20260905200528 36 274 1.6 6.4 0.00 0.00 0.00 54 1014.3
20260905195519 36 18 1.6 8.0 0.00 0.00 0.00 56 1014.2
20260905194522 36 247 3.2 9.7 0.00 0.00 0.00 56 1014.0
20260905193519 36 310 1.6 4.8 0.00 0.00 0.00 58 1014.0
20260905192516 38 299 1.6 6.4 0.00 0.00 0.00 59 1014.0
20260905191532 37 280 1.6 6.4 0.00 0.00 0.00 61 1014.2
20260905190600 37 299 3.2 9.7 0.00 0.00 0.00 63 1014.5
20260905185556 36 305 1.6 6.4 0.00 0.00 0.00 63 1014.6
20260905184524 36 281 1.6 4.8 0.00 0.00 0.00 63 1014.7
20260905183522 33 233 1.6 4.8 0.00 0.00 0.00 70 1015.0
20260905182521 30 148 6.4 14.5 0.00 0.00 0.00 74 1015.3
20260905181519 27 126 6.4 14.5 0.00 0.00 0.00 76 1015.2
20260905180518 26 156 6.4 16.1 0.00 0.00 0.00 78 1015.3
20260905175516 25 152 8.0 17.7 0.00 0.00 0.00 78 1015.8
20260905174533 25 149 8.0 16.1 0.00 0.00 0.00 77 1016.2
20260905173532 25 148 6.4 16.1 0.00 0.00 0.00 76 1016.6
20260905172533 26 139 4.8 14.5 0.00 0.00 0.00 75 1016.9
20260905171528 26 148 4.8 12.9 0.00 0.00 0.00 74 1016.9
20260905170526 27 162 1.6 6.4 0.00 0.00 0.00 73 1017.2
20260905165524 28 160 3.2 8.0 0.00 0.00 0.00 72 1017.3
20260905164523 28 165 1.6 14.5 0.00 0.00 0.00 72 1017.5
20260905163521 30 134 3.2 9.7 0.00 0.00 0.00 70 1017.6
20260905162520 31 192 3.2 6.4 0.00 0.00 0.00 73 1017.3
20260905161518 32 333 1.6 3.2 0.00 0.00 0.00 73 1017.4
20260905160533 30 267 1.6 3.2 0.00 0.00 0.00 74 1017.6
20260905155525 31 42 1.6 4.8 0.00 0.00 0.00 71 1017.6
20260905154521 33 279 1.6 6.4 0.00 0.00 0.00 70 1017.2
20260905153522 34 274 4.8 12.9 0.00 0.00 0.00 68 1017.2
20260905152519 35 256 4.8 9.7 0.00 0.00 0.00 66 1017.2
20260905151534 35 271 4.8 8.0 0.00 0.00 0.00 66 1017.3
20260905150531 35 277 4.8 8.0 0.00 0.00 0.00 68 1017.0
20260905145529 35 286 4.8 6.4 0.00 0.00 0.00 69 1017.0
20260905144526 34 259 4.8 9.7 0.00 0.00 0.00 69 1017.0
20260905143523 34 277 3.2 9.7 0.00 0.00 0.00 69 1017.1
20260905142520 33 265 4.8 9.7 0.00 0.00 0.00 71 1017.1
20260905141518 31 276 3.2 6.4 0.00 0.00 0.00 74 1017.2
20260905140533 30 280 4.8 9.7 0.00 0.00 0.00 75 1017.1
20260905135530 28 270 3.2 8.0 0.00 0.00 0.00 76 1017.0
20260905134527 25 279 3.2 4.8 0.00 0.00 0.00 80 1017.1
20260905133524 23 263 3.2 6.4 0.00 0.00 0.00 83 1017.1
20260905132528 23 226 3.2 6.4 0.00 0.00 0.00 84 1017.0
20260905131521 22 231 1.6 6.4 0.00 0.00 0.00 84 1017.0
20260905130519 22 235 3.2 6.4 0.00 0.00 0.00 83 1017.1
20260905125518 22 216 4.8 14.5 0.00 0.00 0.00 83 1017.2
20260905124530 21 217 3.2 9.7 0.00 0.00 0.00 83 1017.1
20260905123526 21 224 3.2 8.0 0.00 0.00 0.00 84 1017.1
20260905122551 20 280 0.0 3.2 0.00 0.00 0.00 85 1017.1
20260905121516 20 110 1.6 4.8 0.00 0.00 0.00 85 1017.0
20260905120550 20 218 0.0 3.2 0.00 0.00 0.00 86 1017.0
20260905115517 19 231 1.6 6.4 0.00 0.00 0.00 88 1016.9
20260905114534 19 137 0.0 3.2 0.00 0.00 0.00 89 1017.0
20260905113531 18 315 0.0 1.6 0.00 0.00 0.00 90 1016.9
20260905112559 18 76 0.0 3.2 0.00 0.00 0.00 91 1016.9
20260905111557 18 69 0.0 1.6 0.00 0.00 0.00 91 1017.0